Regional Weather Roundup
Issued by NWS

Home | Current Version | Previous Version | Text Only | Print | Product List | Glossary On
Versions: 1 2 3 4 5 6 7 8 9 10 11 12 13 14 15 16 17 18 19 20 21 22 23 24 25 26 27 28 29 30 31 32 33 34 35 36 37 38 39 40 41 42 43 44 45 46 47 48 49 50
000
ASUS43 KBIS 252331
RWRND
NORTH DAKOTA REGIONAL WEATHER ROUNDUP
NATIONAL WEATHER SERVICE EASTERN NORTH DAKOTA/GRAND FORKS ND
600 PM CDT WED APR 25 2018

  NOTE: "FAIR" INDICATES FEW OR NO CLOUDS BELOW 12,000 FEET WITH NO
  SIGNIFICANT WEATHER AND/OR OBSTRUCTIONS TO VISIBILITY.

NDZ001>003-009>011-017-260000-
...NORTHWEST NORTH DAKOTA...

CITY           SKY/WX    TMP DP  RH WIND       PRES   REMARKS
WILLISTON      FAIR      69  27  20 NW16      29.81S
MINOT          FAIR      69  25  19 W17G25    29.76S
MINOT AFB      FAIR      70  30  23 NW18G24   29.74F
$$

NDZ018>021-031>035-040>046-260000-
...SOUTHWEST NORTH DAKOTA...

CITY           SKY/WX    TMP DP  RH WIND       PRES   REMARKS
BISMARCK       FAIR      70  25  18 SW16      29.83F
DICKINSON      FAIR      67  26  21 W21       29.83S
GARRISON         N/A     69  22  16 W20G29    29.78F
HETTINGER      FAIR      69  20  15 W21       29.86F
$$

NDZ004>008-012>016-024-026-027-054-260000-
...NORTHEAST NORTH DAKOTA...

CITY           SKY/WX    TMP DP  RH WIND       PRES   REMARKS
GRAND FORKS    PTSUNNY   61  37  41 SW22G35   29.83F
GRAND FORKS AF FAIR      62  34  35 S14       29.82F
DEVILS LAKE    FAIR      60  29  30 SW13      29.79F
$$

NDZ022-023-025-028>030-036>039-047>053-260000-
...SOUTHEAST NORTH DAKOTA...

CITY           SKY/WX    TMP DP  RH WIND       PRES   REMARKS
JAMESTOWN      FAIR      65  30  27 SW21G32   29.84F
FARGO          FAIR      64  30  27 S18       29.90F
WAHPETON       FAIR      59  30  33 S14G20    29.95F
$$




USA.gov is the U.S. government's official web portal to all federal, state and local government web resources and services.